| time (UTC) | temp F | wind direction | speed knots | gust knots | rain 1hr in | rain 24hr in | rain mn in | humidity % | barometer mb |
| 20260905183506 | 65 | 0 | 0.0 | 0.0 | 0.00 | 0.03 | 0.03 | 62 | 1019.8 |
| 20260905183006 | 65 | 0 | 0.0 | 0.0 | 0.00 | 0.03 | 0.03 | 63 | 1019.9 |
| 20260905182506 | 65 | 295 | 0.0 | 0.9 | 0.00 | 0.03 | 0.03 | 62 | 1019.6 |
| 20260905182006 | 65 | 295 | 0.0 | 0.9 | 0.00 | 0.03 | 0.03 | 62 | 1019.5 |
| 20260905181506 | 66 | 0 | 0.0 | 0.0 | 0.00 | 0.03 | 0.03 | 61 | 1019.6 |
| 20260905181006 | 66 | 291 | 0.0 | 1.7 | 0.00 | 0.03 | 0.03 | 60 | 1019.3 |
| 20260905180506 | 67 | 293 | 0.0 | 1.7 | 0.00 | 0.03 | 0.03 | 59 | 1019.6 |
| 20260905180006 | 67 | 324 | 0.0 | 1.7 | 0.00 | 0.03 | 0.03 | 60 | 1019.2 |
| 20260905175506 | 67 | 320 | 0.0 | 1.7 | 0.00 | 0.03 | 0.03 | 59 | 1019.0 |
| 20260905175006 | 66 | 296 | 0.0 | 1.7 | 0.00 | 0.03 | 0.03 | 60 | 1019.1 |
| 20260905174506 | 66 | 7 | 0.0 | 0.9 | 0.00 | 0.03 | 0.03 | 60 | 1019.1 |
| 20260905174006 | 67 | 30 | 0.0 | 0.9 | 0.00 | 0.03 | 0.03 | 59 | 1019.0 |
| 20260905173506 | 67 | 25 | 0.0 | 0.9 | 0.00 | 0.03 | 0.03 | 58 | 1018.9 |
| 20260905173006 | 68 | 27 | 0.0 | 0.9 | 0.00 | 0.03 | 0.03 | 58 | 1018.9 |
| 20260905172506 | 68 | 11 | 0.0 | 0.9 | 0.00 | 0.03 | 0.03 | 56 | 1018.5 |
| 20260905172027 | 68 | 343 | 0.0 | 1.7 | 0.00 | 0.03 | 0.03 | 56 | 1018.8 |
| 20260905171527 | 68 | 321 | 0.0 | 1.7 | 0.00 | 0.03 | 0.03 | 55 | 1018.6 |
| 20260905171027 | 68 | 345 | 0.0 | 1.7 | 0.00 | 0.03 | 0.03 | 56 | 1018.5 |
| 20260905170506 | 68 | 14 | 0.0 | 2.6 | 0.00 | 0.03 | 0.03 | 55 | 1018.6 |
| 20260905170006 | 69 | 353 | 0.0 | 3.5 | 0.00 | 0.03 | 0.03 | 54 | 1018.4 |
| 20260905165506 | 69 | 311 | 0.9 | 3.5 | 0.00 | 0.03 | 0.03 | 54 | 1018.4 |
| 20260905165027 | 70 | 299 | 0.9 | 3.5 | 0.00 | 0.03 | 0.03 | 53 | 1018.3 |
| 20260905164506 | 70 | 354 | 0.9 | 3.5 | 0.00 | 0.03 | 0.03 | 53 | 1018.2 |
| 20260905164006 | 70 | 10 | 0.9 | 2.6 | 0.00 | 0.03 | 0.03 | 53 | 1018.2 |
| 20260905163506 | 70 | 310 | 0.9 | 6.1 | 0.00 | 0.03 | 0.03 | 51 | 1018.1 |
| 20260905163006 | 70 | 299 | 0.9 | 6.1 | 0.00 | 0.03 | 0.03 | 51 | 1018.2 |
| 20260905162505 | 70 | 331 | 0.9 | 3.5 | 0.00 | 0.03 | 0.03 | 50 | 1018.3 |
| 20260905162005 | 70 | 329 | 0.9 | 2.6 | 0.00 | 0.03 | 0.03 | 51 | 1018.4 |
| 20260905161527 | 70 | 306 | 0.9 | 3.5 | 0.00 | 0.03 | 0.03 | 50 | 1018.3 |
| 20260905161005 | 71 | 301 | 0.9 | 7.0 | 0.00 | 0.03 | 0.03 | 49 | 1018.1 |
| 20260905160505 | 71 | 309 | 0.9 | 7.0 | 0.00 | 0.03 | 0.03 | 49 | 1018.1 |
| 20260905160006 | 71 | 2 | 0.9 | 2.6 | 0.00 | 0.03 | 0.03 | 50 | 1018.0 |
| 20260905155506 | 71 | 351 | 0.9 | 2.6 | 0.00 | 0.03 | 0.03 | 48 | 1018.0 |
| 20260905155005 | 71 | 4 | 0.9 | 2.6 | 0.00 | 0.03 | 0.03 | 49 | 1017.9 |
| 20260905154505 | 70 | 338 | 0.9 | 3.5 | 0.00 | 0.03 | 0.03 | 49 | 1018.0 |
| 20260905154006 | 70 | 323 | 0.9 | 7.0 | 0.00 | 0.03 | 0.03 | 48 | 1018.0 |
| 20260905153505 | 70 | 311 | 1.7 | 11.3 | 0.00 | 0.03 | 0.03 | 48 | 1018.0 |
| 20260905153005 | 71 | 295 | 1.7 | 11.3 | 0.00 | 0.03 | 0.03 | 47 | 1018.1 |
| 20260905152505 | 72 | 297 | 1.7 | 8.7 | 0.00 | 0.03 | 0.03 | 46 | 1018.0 |
| 20260905152005 | 73 | 288 | 1.7 | 8.7 | 0.00 | 0.03 | 0.03 | 44 | 1018.0 |
| 20260905151505 | 73 | 280 | 1.7 | 8.7 | 0.00 | 0.03 | 0.03 | 43 | 1017.9 |
| 20260905151026 | 73 | 304 | 1.7 | 12.2 | 0.00 | 0.03 | 0.03 | 43 | 1018.0 |
| 20260905150505 | 73 | 300 | 1.7 | 12.2 | 0.00 | 0.03 | 0.03 | 43 | 1018.0 |
| 20260905150005 | 73 | 287 | 1.7 | 12.2 | 0.00 | 0.03 | 0.03 | 42 | 1017.8 |
| 20260905145505 | 73 | 310 | 0.9 | 7.0 | 0.00 | 0.03 | 0.03 | 42 | 1018.2 |
| 20260905145005 | 73 | 336 | 0.9 | 7.0 | 0.00 | 0.03 | 0.03 | 43 | 1018.1 |
| 20260905144526 | 74 | 267 | 1.7 | 9.6 | 0.00 | 0.03 | 0.03 | 44 | 1017.9 |
| 20260905144005 | 73 | 265 | 1.7 | 9.6 | 0.00 | 0.03 | 0.03 | 45 | 1017.6 |
| 20260905143526 | 73 | 267 | 1.7 | 9.6 | 0.00 | 0.03 | 0.03 | 45 | 1017.9 |
| 20260905143005 | 72 | 259 | 1.7 | 9.6 | 0.00 | 0.03 | 0.03 | 44 | 1018.0 |
| 20260905142505 | 74 | 253 | 2.6 | 8.7 | 0.00 | 0.03 | 0.03 | 43 | 1017.7 |
| 20260905142005 | 74 | 251 | 1.7 | 8.7 | 0.00 | 0.03 | 0.03 | 44 | 1017.8 |
| 20260905141505 | 74 | 13 | 0.9 | 6.1 | 0.00 | 0.03 | 0.03 | 43 | 1017.9 |
| 20260905141005 | 74 | 309 | 1.7 | 12.2 | 0.00 | 0.03 | 0.03 | 43 | 1018.1 |
| 20260905140505 | 73 | 265 | 3.5 | 12.2 | 0.00 | 0.03 | 0.03 | 43 | 1018.0 |
| 20260905140005 | 73 | 253 | 3.5 | 13.0 | 0.00 | 0.03 | 0.03 | 43 | 1018.1 |
| 20260905135526 | 75 | 264 | 2.6 | 13.0 | 0.00 | 0.03 | 0.03 | 41 | 1018.1 |
| 20260905135005 | 76 | 309 | 0.9 | 6.1 | 0.00 | 0.03 | 0.03 | 39 | 1018.0 |
| 20260905134505 | 75 | 328 | 0.9 | 6.1 | 0.00 | 0.03 | 0.03 | 41 | 1018.0 |
| 20260905134005 | 74 | 7 | 1.7 | 6.1 | 0.00 | 0.03 | 0.03 | 42 | 1018.1 |
| 20260905133505 | 73 | 348 | 1.7 | 7.0 | 0.00 | 0.03 | 0.03 | 44 | 1018.1 |
| 20260905133005 | 76 | 313 | 1.7 | 7.0 | 0.00 | 0.03 | 0.03 | 42 | 1018.1 |
| 20260905132505 | 76 | 336 | 0.9 | 6.1 | 0.00 | 0.03 | 0.03 | 41 | 1018.1 |
| 20260905132005 | 77 | 342 | 0.9 | 6.1 | 0.00 | 0.03 | 0.03 | 41 | 1018.1 |
| 20260905131505 | 76 | 313 | 1.7 | 7.8 | 0.00 | 0.03 | 0.03 | 43 | 1018.2 |
| 20260905131026 | 75 | 309 | 1.7 | 7.8 | 0.00 | 0.03 | 0.03 | 42 | 1018.2 |
| 20260905130526 | 74 | 324 | 1.7 | 13.0 | 0.00 | 0.03 | 0.03 | 43 | 1018.1 |
| 20260905130005 | 74 | 346 | 1.7 | 13.0 | 0.00 | 0.03 | 0.03 | 43 | 1018.1 |
| 20260905125505 | 75 | 334 | 1.7 | 7.8 | 0.00 | 0.03 | 0.03 | 42 | 1018.2 |
| 20260905125005 | 75 | 332 | 1.7 | 11.3 | 0.00 | 0.03 | 0.03 | 42 | 1018.0 |
| 20260905124505 | 73 | 353 | 2.6 | 11.3 | 0.00 | 0.03 | 0.03 | 44 | 1018.1 |
| 20260905124026 | 75 | 344 | 1.7 | 9.6 | 0.00 | 0.03 | 0.03 | 43 | 1018.2 |
| 20260905123505 | 76 | 311 | 1.7 | 7.0 | 0.00 | 0.03 | 0.03 | 42 | 1018.1 |
| 20260905123005 | 75 | 341 | 1.7 | 7.0 | 0.00 | 0.03 | 0.03 | 42 | 1018.3 |
| 20260905122505 | 74 | 321 | 1.7 | 7.8 | 0.00 | 0.03 | 0.03 | 44 | 1018.3 |
| 20260905122005 | 74 | 269 | 2.6 | 12.2 | 0.00 | 0.03 | 0.03 | 45 | 1018.1 |
| 20260905121505 | 74 | 278 | 1.7 | 12.2 | 0.00 | 0.03 | 0.03 | 44 | 1018.3 |
| 20260905121005 | 75 | 347 | 0.9 | 7.8 | 0.00 | 0.03 | 0.03 | 44 | 1018.3 |
| 20260905120505 | 74 | 4 | 1.7 | 8.7 | 0.00 | 0.03 | 0.03 | 45 | 1018.3 |
| 20260905120026 | 74 | 329 | 1.7 | 11.3 | 0.00 | 0.03 | 0.03 | 46 | 1018.5 |
| 20260905115505 | 74 | 283 | 2.6 | 13.0 | 0.00 | 0.03 | 0.03 | 45 | 1018.4 |
| 20260905115026 | 73 | 283 | 2.6 | 13.0 | 0.00 | 0.03 | 0.03 | 45 | 1018.6 |
| 20260905114505 | 73 | 299 | 1.7 | 7.0 | 0.00 | 0.03 | 0.03 | 45 | 1018.4 |
| 20260905114005 | 72 | 315 | 1.7 | 12.2 | 0.00 | 0.03 | 0.03 | 47 | 1018.4 |
| 20260905113505 | 72 | 315 | 1.7 | 12.2 | 0.00 | 0.03 | 0.03 | 48 | 1018.2 |
| 20260905113005 | 73 | 338 | 1.7 | 12.2 | 0.00 | 0.03 | 0.03 | 49 | 1018.6 |
| 20260905112505 | 74 | 319 | 1.7 | 7.0 | 0.00 | 0.03 | 0.03 | 47 | 1018.3 |
| 20260905112005 | 72 | 277 | 2.6 | 8.7 | 0.00 | 0.03 | 0.03 | 48 | 1018.8 |
| 20260905111526 | 72 | 268 | 3.5 | 8.7 | 0.00 | 0.03 | 0.03 | 49 | 1018.4 |
| 20260905111005 | 72 | 279 | 1.7 | 8.7 | 0.00 | 0.03 | 0.03 | 47 | 1018.4 |
| 20260905110526 | 72 | 293 | 1.7 | 7.8 | 0.00 | 0.03 | 0.03 | 47 | 1018.6 |
| 20260905110026 | 72 | 280 | 1.7 | 7.8 | 0.00 | 0.03 | 0.03 | 44 | 1018.6 |
| 20260905105505 | 73 | 289 | 1.7 | 8.7 | 0.00 | 0.03 | 0.03 | 47 | 1018.3 |
| 20260905105005 | 72 | 286 | 1.7 | 8.7 | 0.00 | 0.03 | 0.03 | 50 | 1018.0 |
| 20260905104505 | 72 | 271 | 3.5 | 13.0 | 0.00 | 0.03 | 0.03 | 49 | 1018.3 |
| 20260905104005 | 71 | 273 | 2.6 | 13.0 | 0.00 | 0.03 | 0.03 | 48 | 1018.2 |
| 20260905103505 | 74 | 293 | 1.7 | 13.0 | 0.00 | 0.03 | 0.03 | 47 | 1018.1 |
| 20260905103005 | 71 | 293 | 1.7 | 13.0 | 0.00 | 0.03 | 0.03 | 53 | 1018.3 |
| 20260905102525 | 74 | 308 | 1.7 | 7.0 | 0.00 | 0.03 | 0.03 | 49 | 1018.5 |
| 20260905102004 | 72 | 308 | 1.7 | 7.8 | 0.00 | 0.03 | 0.03 | 52 | 1018.4 |
| 20260905101505 | 72 | 291 | 1.7 | 9.6 | 0.00 | 0.03 | 0.03 | 53 | 1018.4 |
| 20260905101025 | 70 | 267 | 3.5 | 14.8 | 0.00 | 0.03 | 0.03 | 56 | 1018.5 |
| 20260905100505 | 69 | 257 | 2.6 | 14.8 | 0.00 | 0.03 | 0.03 | 55 | 1018.8 |
| 20260905100004 | 70 | 269 | 2.6 | 11.3 | 0.00 | 0.03 | 0.03 | 54 | 1018.6 |
| 20260905095525 | 70 | 267 | 3.5 | 11.3 | 0.00 | 0.03 | 0.03 | 55 | 1018.9 |
| 20260905095004 | 69 | 271 | 2.6 | 9.6 | 0.00 | 0.03 | 0.03 | 57 | 1018.8 |
| 20260905094526 | 71 | 298 | 1.7 | 9.6 | 0.00 | 0.03 | 0.03 | 57 | 1018.6 |
| 20260905094004 | 70 | 290 | 1.7 | 6.1 | 0.00 | 0.03 | 0.03 | 57 | 1018.9 |
| 20260905093504 | 69 | 280 | 1.7 | 6.1 | 0.00 | 0.03 | 0.03 | 62 | 1018.6 |
| 20260905093004 | 69 | 272 | 2.6 | 12.2 | 0.00 | 0.03 | 0.03 | 63 | 1018.6 |
| 20260905092504 | 67 | 271 | 2.6 | 12.2 | 0.00 | 0.03 | 0.03 | 65 | 1019.0 |
| 20260905092004 | 68 | 284 | 1.7 | 7.8 | 0.00 | 0.03 | 0.03 | 64 | 1019.0 |
| 20260905091504 | 68 | 295 | 1.7 | 6.1 | 0.00 | 0.03 | 0.03 | 66 | 1018.6 |
| 20260905091004 | 69 | 359 | 0.9 | 3.5 | 0.00 | 0.03 | 0.03 | 63 | 1019.0 |
| 20260905090504 | 68 | 291 | 1.7 | 7.0 | 0.00 | 0.03 | 0.03 | 71 | 1018.9 |
| 20260905090004 | 65 | 280 | 1.7 | 9.6 | 0.00 | 0.03 | 0.03 | 72 | 1018.8 |
| 20260905085525 | 65 | 269 | 2.6 | 12.2 | 0.00 | 0.03 | 0.03 | 74 | 1019.0 |
| 20260905085004 | 64 | 262 | 3.5 | 12.2 | 0.00 | 0.03 | 0.03 | 74 | 1019.0 |
| 20260905084504 | 65 | 275 | 1.7 | 8.7 | 0.00 | 0.03 | 0.03 | 74 | 1018.9 |
| 20260905084025 | 64 | 282 | 1.7 | 8.7 | 0.00 | 0.03 | 0.03 | 75 | 1019.0 |
| 20260905083504 | 64 | 293 | 0.9 | 3.5 | 0.00 | 0.03 | 0.03 | 76 | 1019.0 |
| 20260905083004 | 63 | 304 | 0.9 | 3.5 | 0.00 | 0.03 | 0.03 | 78 | 1018.6 |
| 20260905082504 | 63 | 314 | 0.9 | 2.6 | 0.00 | 0.03 | 0.03 | 80 | 1018.8 |
| 20260905082025 | 62 | 314 | 0.0 | 2.6 | 0.00 | 0.03 | 0.03 | 81 | 1019.0 |
| 20260905081504 | 62 | 343 | 0.0 | 2.6 | 0.00 | 0.03 | 0.03 | 81 | 1018.5 |
| 20260905081025 | 61 | 333 | 0.0 | 2.6 | 0.00 | 0.03 | 0.03 | 85 | 1018.8 |
| 20260905080504 | 61 | 315 | 0.0 | 1.7 | 0.00 | 0.03 | 0.03 | 85 | 1018.8 |
| 20260905080004 | 60 | 324 | 0.0 | 2.6 | 0.00 | 0.03 | 0.03 | 84 | 1018.9 |
| 20260905075525 | 60 | 315 | 0.9 | 2.6 | 0.00 | 0.03 | 0.03 | 86 | 1018.4 |
| 20260905075004 | 59 | 307 | 0.9 | 2.6 | 0.00 | 0.03 | 0.03 | 86 | 1018.3 |
| 20260905074504 | 59 | 315 | 0.0 | 1.7 | 0.00 | 0.03 | 0.03 | 87 | 1018.4 |
| 20260905074004 | 58 | 316 | 0.0 | 1.7 | 0.00 | 0.03 | 0.03 | 87 | 1018.0 |
| 20260905073504 | 58 | 309 | 0.0 | 1.7 | 0.00 | 0.03 | 0.03 | 88 | 1018.0 |
| 20260905073004 | 58 | 323 | 0.0 | 1.7 | 0.00 | 0.03 | 0.03 | 88 | 1017.6 |
| 20260905072525 | 58 | 344 | 0.0 | 0.9 | 0.00 | 0.03 | 0.03 | 90 | 1017.6 |
| 20260905072004 | 58 | 11 | 0.0 | 0.9 | 0.00 | 0.03 | 0.03 | 88 | 1017.5 |
| 20260905071504 | 58 | 351 | 0.0 | 1.7 | 0.00 | 0.03 | 0.03 | 89 | 1017.6 |
| 20260905071004 | 58 | 333 | 0.0 | 1.7 | 0.00 | 0.03 | 0.03 | 88 | 1017.8 |
| 20260905070504 | 58 | 335 | 0.0 | 0.9 | 0.01 | 0.03 | 0.03 | 90 | 1018.0 |
| 20260905070004 | 57 | 323 | 0.0 | 0.9 | 0.01 | 0.03 | 0.03 | 90 | 1017.8 |
| 20260905065504 | 57 | 323 | 0.0 | 0.9 | 0.01 | 0.03 | 0.03 | 89 | 1017.6 |
| 20260905065025 | 57 | 3 | 0.0 | 1.7 | 0.01 | 0.03 | 0.03 | 90 | 1017.7 |
| 20260905064525 | 57 | 5 | 0.0 | 1.7 | 0.01 | 0.03 | 0.03 | 90 | 1017.8 |
| 20260905064004 | 57 | 4 | 0.0 | 0.9 | 0.02 | 0.03 | 0.03 | 91 | 1018.5 |
| 20260905063504 | 57 | 7 | 0.0 | 0.9 | 0.02 | 0.03 | 0.03 | 90 | 1018.1 |
| 20260905063004 | 57 | 344 | 0.0 | 0.9 | 0.02 | 0.03 | 0.03 | 91 | 1018.0 |
| 20260905062504 | 57 | 325 | 0.0 | 2.6 | 0.02 | 0.03 | 0.03 | 89 | 1018.2 |
| 20260905062004 | 57 | 324 | 0.0 | 2.6 | 0.02 | 0.03 | 0.03 | 90 | 1017.9 |
| 20260905061525 | 57 | 344 | 0.0 | 2.6 | 0.02 | 0.03 | 0.03 | 88 | 1017.5 |
| 20260905061004 | 57 | 280 | 0.9 | 7.8 | 0.02 | 0.03 | 0.03 | 88 | 1017.0 |
| 20260905060525 | 58 | 267 | 0.9 | 7.8 | 0.01 | 0.02 | 0.02 | 88 | 1017.3 |
| 20260905060004 | 58 | 293 | 0.9 | 7.8 | 0.01 | 0.02 | 0.02 | 85 | 1017.4 |
| 20260905055504 | 58 | 316 | 0.9 | 3.5 | 0.01 | 0.02 | 0.02 | 87 | 1017.6 |
| 20260905055004 | 58 | 302 | 0.9 | 3.5 | 0.01 | 0.02 | 0.02 | 86 | 1017.9 |
| 20260905054504 | 58 | 307 | 0.0 | 2.6 | 0.01 | 0.02 | 0.02 | 87 | 1017.8 |
| 20260905054004 | 58 | 324 | 0.0 | 2.6 | 0.00 | 0.01 | 0.01 | 87 | 1017.9 |
| 20260905053525 | 59 | 322 | 0.0 | 2.6 | 0.00 | 0.01 | 0.01 | 85 | 1017.9 |
| 20260905053004 | 59 | 319 | 0.9 | 3.5 | 0.00 | 0.01 | 0.01 | 84 | 1017.6 |
| 20260905052504 | 59 | 346 | 0.9 | 3.5 | 0.00 | 0.01 | 0.01 | 83 | 1017.6 |
| 20260905052004 | 59 | 359 | 0.9 | 6.1 | 0.00 | 0.01 | 0.01 | 84 | 1017.2 |
| 20260905051504 | 60 | 350 | 0.9 | 6.1 | 0.00 | 0.01 | 0.01 | 87 | 1017.3 |
| 20260905051025 | 60 | 346 | 0.9 | 6.1 | 0.00 | 0.01 | 0.01 | 87 | 1017.3 |
| 20260905050504 | 60 | 299 | 0.0 | 3.5 | 0.00 | 0.01 | 0.01 | 88 | 1017.1 |
| 20260905050004 | 60 | 303 | 0.0 | 3.5 | 0.00 | 0.01 | 0.01 | 89 | 1017.1 |
| 20260905045504 | 60 | 298 | 0.0 | 3.5 | 0.01 | 0.01 | 0.01 | 91 | 1016.7 |
| 20260905045004 | 60 | 298 | 0.0 | 3.5 | 0.01 | 0.01 | 0.01 | 90 | 1016.9 |
| 20260905044504 | 60 | 304 | 0.0 | 0.9 | 0.01 | 0.01 | 0.01 | 92 | 1016.9 |
| 20260905044003 | 60 | 304 | 0.0 | 0.9 | 0.01 | 0.01 | 0.01 | 92 | 1016.8 |
| 20260905043504 | 60 | 0 | 0.0 | 0.0 | 0.01 | 0.01 | 0.01 | 92 | 1016.9 |
| 20260905043003 | 60 | 0 | 0.0 | 0.0 | 0.01 | 0.01 | 0.01 | 91 | 1016.8 |
| 20260905042524 | 60 | 291 | 0.0 | 1.7 | 0.01 | 0.01 | 0.01 | 91 | 1016.5 |
| 20260905042004 | 60 | 290 | 0.0 | 2.6 | 0.01 | 0.01 | 0.01 | 90 | 1016.4 |
| 20260905041504 | 61 | 283 | 0.9 | 3.5 | 0.01 | 0.01 | 0.01 | 89 | 1016.3 |
| 20260905041003 | 61 | 282 | 0.9 | 3.5 | 0.01 | 0.01 | 0.01 | 88 | 1016.5 |
| 20260905040504 | 61 | 294 | 0.0 | 2.6 | 0.01 | 0.01 | 0.01 | 88 | 1015.8 |
| 20260905040003 | 61 | 5 | 0.0 | 2.6 | 0.01 | 0.01 | 0.01 | 87 | 1016.0 |
| 20260905035504 | 61 | 350 | 0.0 | 2.6 | 0.00 | 0.00 | 0.00 | 86 | 1015.9 |
| 20260905035004 | 61 | 316 | 0.0 | 2.6 | 0.00 | 0.00 | 0.00 | 85 | 1015.8 |
| 20260905034524 | 61 | 304 | 0.0 | 2.6 | 0.00 | 0.00 | 0.00 | 85 | 1015.9 |
| 20260905034003 | 62 | 303 | 0.0 | 2.6 | 0.00 | 0.00 | 0.00 | 84 | 1015.3 |
| 20260905033504 | 62 | 303 | 0.0 | 2.6 | 0.00 | 0.00 | 0.00 | 84 | 1015.6 |
| 20260905033003 | 62 | 309 | 0.9 | 5.2 | 0.00 | 0.00 | 0.00 | 83 | 1015.8 |
| 20260905032503 | 62 | 341 | 0.9 | 5.2 | 0.00 | 0.00 | 0.00 | 82 | 1015.5 |
| 20260905032024 | 63 | 359 | 0.9 | 5.2 | 0.00 | 0.00 | 0.00 | 81 | 1015.4 |
| 20260905031503 | 63 | 360 | 0.0 | 5.2 | 0.00 | 0.00 | 0.00 | 79 | 1015.6 |
| 20260905031004 | 63 | 331 | 0.0 | 1.7 | 0.00 | 0.00 | 0.00 | 79 | 1015.8 |
| 20260905030503 | 63 | 304 | 0.0 | 1.7 | 0.00 | 0.00 | 0.00 | 79 | 1015.4 |
| 20260905030003 | 63 | 307 | 0.0 | 1.7 | 0.00 | 0.00 | 0.00 | 79 | 1015.3 |
| 20260905025503 | 63 | 310 | 0.0 | 1.7 | 0.00 | 0.00 | 0.00 | 78 | 1015.1 |
| 20260905025003 | 63 | 317 | 0.0 | 5.2 | 0.00 | 0.00 | 0.00 | 77 | 1014.8 |
| 20260905024503 | 63 | 323 | 0.9 | 5.2 | 0.00 | 0.00 | 0.00 | 77 | 1014.9 |
| 20260905024003 | 64 | 324 | 0.9 | 6.1 | 0.00 | 0.00 | 0.00 | 77 | 1015.0 |
| 20260905023503 | 64 | 339 | 0.9 | 7.0 | 0.00 | 0.00 | 0.00 | 76 | 1014.8 |
| 20260905023003 | 64 | 338 | 0.9 | 7.0 | 0.00 | 0.00 | 0.00 | 75 | 1014.9 |
| 20260905022503 | 65 | 306 | 0.9 | 2.6 | 0.00 | 0.00 | 0.00 | 71 | 1014.9 |
| 20260905022024 | 65 | 299 | 0.9 | 2.6 | 0.00 | 0.00 | 0.00 | 69 | 1014.8 |
| 20260905021524 | 65 | 303 | 0.0 | 1.7 | 0.00 | 0.00 | 0.00 | 70 | 1014.6 |
| 20260905021024 | 65 | 312 | 0.0 | 1.7 | 0.00 | 0.00 | 0.00 | 70 | 1014.5 |
| 20260905020524 | 65 | 320 | 0.0 | 0.9 | 0.00 | 0.00 | 0.00 | 70 | 1014.1 |
| 20260905020003 | 65 | 319 | 0.0 | 0.9 | 0.00 | 0.00 | 0.00 | 70 | 1014.4 |
| 20260905015503 | 65 | 314 | 0.0 | 1.7 | 0.00 | 0.00 | 0.00 | 69 | 1014.5 |
| 20260905015003 | 65 | 304 | 0.9 | 3.5 | 0.00 | 0.00 | 0.00 | 69 | 1014.6 |
| 20260905014503 | 66 | 318 | 0.9 | 3.5 | 0.00 | 0.00 | 0.00 | 68 | 1014.5 |
| 20260905014003 | 66 | 336 | 0.9 | 3.5 | 0.00 | 0.00 | 0.00 | 68 | 1014.5 |
| 20260905013503 | 66 | 347 | 1.7 | 7.8 | 0.00 | 0.00 | 0.00 | 68 | 1014.1 |
| 20260905013024 | 66 | 349 | 0.9 | 7.8 | 0.00 | 0.00 | 0.00 | 68 | 1014.1 |
| 20260905012503 | 66 | 345 | 0.9 | 6.1 | 0.00 | 0.00 | 0.00 | 69 | 1014.4 |
| 20260905012003 | 66 | 344 | 0.9 | 6.1 | 0.00 | 0.00 | 0.00 | 70 | 1014.3 |
| 20260905011524 | 66 | 335 | 0.9 | 3.5 | 0.00 | 0.00 | 0.00 | 70 | 1014.3 |
| 20260905011024 | 66 | 340 | 0.9 | 3.5 | 0.00 | 0.00 | 0.00 | 70 | 1014.2 |
| 20260905010503 | 66 | 345 | 0.9 | 3.5 | 0.00 | 0.00 | 0.00 | 70 | 1014.3 |
| 20260905010003 | 67 | 346 | 0.9 | 3.5 | 0.00 | 0.00 | 0.00 | 71 | 1013.9 |
| 20260905005507 | 67 | 343 | 1.7 | 7.0 | 0.00 | 0.00 | 0.00 | 71 | 1013.9 |
| 20260905005007 | 67 | 342 | 1.7 | 7.0 | 0.00 | 0.00 | 0.00 | 71 | 1014.1 |
| 20260905004507 | 68 | 340 | 1.7 | 6.1 | 0.00 | 0.00 | 0.00 | 71 | 1014.1 |
| 20260905004007 | 68 | 342 | 1.7 | 7.0 | 0.00 | 0.00 | 0.00 | 71 | 1013.3 |
| 20260905003507 | 68 | 346 | 1.7 | 7.0 | 0.00 | 0.00 | 0.00 | 71 | 1013.5 |
| 20260905003028 | 68 | 345 | 1.7 | 7.0 | 0.00 | 0.00 | 0.00 | 70 | 1013.1 |
| 20260905002507 | 64 | 328 | 0.0 | 3.5 | 0.00 | 0.00 | 0.00 | 74 | 1013.0 |
| 20260905002007 | 62 | 333 | 0.0 | 0.9 | 0.00 | 0.00 | 0.00 | 82 | 1012.4 |
| 20260905001507 | 62 | 332 | 0.0 | 0.9 | 0.00 | 0.00 | 0.00 | 82 | 1012.0 |
| 20260905001007 | 62 | 331 | 0.0 | 0.9 | 0.00 | 0.00 | 0.00 | 82 | 1011.9 |
| 20260905000507 | 62 | 333 | 0.0 | 0.9 | 0.00 | 0.00 | 0.00 | 82 | 1011.7 |
| 20260905000007 | 62 | 333 | 0.0 | 0.9 | 0.00 | 0.00 | 0.00 | 83 | 1011.5 |
| 20260904235507 | 61 | 0 | 0.0 | 0.0 | 0.00 | 0.00 | 0.00 | 83 | 1011.6 |
| 20260904235007 | 61 | 0 | 0.0 | 0.0 | 0.00 | 0.00 | 0.00 | 83 | 1011.6 |
| 20260904234507 | 61 | 0 | 0.0 | 0.0 | 0.00 | 0.00 | 0.00 | 83 | 1011.4 |
| 20260904234007 | 61 | 333 | 0.0 | 0.9 | 0.00 | 0.00 | 0.00 | 82 | 1011.5 |
| 20260904233507 | 62 | 333 | 0.0 | 0.9 | 0.00 | 0.00 | 0.00 | 82 | 1011.6 |
| 20260904233007 | 62 | 0 | 0.0 | 0.0 | 0.00 | 0.00 | 0.00 | 82 | 1011.5 |
| 20260904232507 | 62 | 0 | 0.0 | 0.0 | 0.00 | 0.00 | 0.00 | 82 | 1011.3 |
| 20260904232007 | 62 | 0 | 0.0 | 0.0 | 0.00 | 0.00 | 0.00 | 81 | 1011.6 |
| 20260904231528 | 62 | 0 | 0.0 | 0.0 | 0.00 | 0.00 | 0.00 | 81 | 1011.5 |
| 20260904231028 | 62 | 0 | 0.0 | 0.0 | 0.00 | 0.00 | 0.00 | 81 | 1011.5 |
| 20260904230507 | 62 | 0 | 0.0 | 0.0 | 0.00 | 0.00 | 0.00 | 81 | 1011.6 |
| 20260904230007 | 62 | 0 | 0.0 | 0.0 | 0.00 | 0.00 | 0.00 | 81 | 1011.3 |
| 20260904225507 | 62 | 0 | 0.0 | 0.0 | 0.00 | 0.00 | 0.00 | 82 | 1011.4 |
| 20260904225028 | 62 | 329 | 0.0 | 0.9 | 0.00 | 0.00 | 0.00 | 82 | 1011.3 |
| 20260904224507 | 62 | 330 | 0.0 | 0.9 | 0.00 | 0.00 | 0.00 | 82 | 1011.3 |
| 20260904224007 | 62 | 335 | 0.0 | 0.9 | 0.00 | 0.00 | 0.00 | 82 | 1011.2 |
| 20260904223507 | 62 | 335 | 0.0 | 0.9 | 0.00 | 0.00 | 0.00 | 81 | 1011.3 |
| 20260904223006 | 62 | 0 | 0.0 | 0.0 | 0.00 | 0.00 | 0.00 | 81 | 1011.5 |
| 20260904222507 | 62 | 0 | 0.0 | 0.0 | 0.00 | 0.00 | 0.00 | 80 | 1011.3 |
| 20260904222027 | 62 | 86 | 0.0 | 0.9 | 0.00 | 0.00 | 0.00 | 80 | 1011.2 |
| 20260904221506 | 63 | 86 | 0.0 | 0.9 | 0.00 | 0.00 | 0.00 | 80 | 1011.2 |
| 20260904221006 | 63 | 0 | 0.0 | 0.0 | 0.00 | 0.00 | 0.00 | 79 | 1011.3 |
| 20260904220506 | 63 | 0 | 0.0 | 0.0 | 0.00 | 0.00 | 0.00 | 80 | 1011.3 |
| 20260904220006 | 63 | 0 | 0.0 | 0.0 | 0.00 | 0.00 | 0.00 | 80 | 1011.1 |
| 20260904215506 | 63 | 0 | 0.0 | 0.0 | 0.00 | 0.00 | 0.00 | 80 | 1011.2 |
| 20260904215007 | 63 | 0 | 0.0 | 0.0 | 0.00 | 0.00 | 0.00 | 80 | 1011.4 |
| 20260904214506 | 63 | 87 | 0.0 | 0.9 | 0.00 | 0.00 | 0.00 | 80 | 1011.5 |
| 20260904214027 | 63 | 87 | 0.0 | 0.9 | 0.00 | 0.00 | 0.00 | 79 | 1011.3 |
| 20260904213506 | 63 | 86 | 0.0 | 0.9 | 0.00 | 0.00 | 0.00 | 79 | 1011.4 |
| 20260904213006 | 63 | 87 | 0.0 | 0.9 | 0.00 | 0.00 | 0.00 | 78 | 1011.2 |
| 20260904212506 | 63 | 0 | 0.0 | 0.0 | 0.00 | 0.00 | 0.00 | 78 | 1011.3 |
| 20260904212027 | 63 | 0 | 0.0 | 0.0 | 0.00 | 0.00 | 0.00 | 78 | 1011.4 |
| 20260904211506 | 63 | 0 | 0.0 | 0.0 | 0.00 | 0.00 | 0.00 | 79 | 1011.5 |
| 20260904211027 | 64 | 0 | 0.0 | 0.0 | 0.00 | 0.00 | 0.00 | 78 | 1011.3 |
| 20260904210527 | 64 | 104 | 0.0 | 0.9 | 0.00 | 0.00 | 0.00 | 78 | 1011.1 |
| 20260904210006 | 64 | 132 | 0.0 | 0.9 | 0.00 | 0.00 | 0.00 | 77 | 1011.2 |
| 20260904205506 | 64 | 195 | 0.0 | 0.9 | 0.00 | 0.00 | 0.00 | 77 | 1011.2 |
| 20260904205006 | 64 | 0 | 0.0 | 0.0 | 0.00 | 0.00 | 0.00 | 77 | 1011.5 |
| 20260904204506 | 64 | 358 | 0.0 | 0.9 | 0.00 | 0.00 | 0.00 | 76 | 1011.2 |
| 20260904204006 | 64 | 358 | 0.0 | 0.9 | 0.00 | 0.00 | 0.00 | 76 | 1011.5 |
| 20260904203506 | 64 | 0 | 0.0 | 0.0 | 0.00 | 0.00 | 0.00 | 76 | 1011.3 |
| 20260904203006 | 64 | 0 | 0.0 | 0.0 | 0.00 | 0.00 | 0.00 | 76 | 1011.2 |
| 20260904202506 | 64 | 356 | 0.0 | 0.9 | 0.00 | 0.00 | 0.00 | 76 | 1011.3 |
| 20260904202006 | 65 | 356 | 0.0 | 0.9 | 0.00 | 0.00 | 0.00 | 76 | 1011.4 |
| 20260904201506 | 65 | 355 | 0.0 | 0.9 | 0.00 | 0.00 | 0.00 | 75 | 1011.4 |
| 20260904201027 | 65 | 350 | 0.0 | 0.9 | 0.00 | 0.00 | 0.00 | 74 | 1011.2 |
| 20260904200506 | 66 | 344 | 0.0 | 0.9 | 0.00 | 0.00 | 0.00 | 74 | 1011.2 |
| 20260904200006 | 66 | 338 | 0.0 | 0.9 | 0.00 | 0.00 | 0.00 | 74 | 1011.5 |
| 20260904195527 | 66 | 0 | 0.0 | 0.0 | 0.00 | 0.00 | 0.00 | 74 | 1011.6 |
| 20260904195006 | 66 | 0 | 0.0 | 0.0 | 0.00 | 0.00 | 0.00 | 73 | 1011.5 |
| 20260904194506 | 66 | 0 | 0.0 | 0.0 | 0.00 | 0.00 | 0.00 | 73 | 1011.8 |
| 20260904194006 | 66 | 0 | 0.0 | 0.0 | 0.00 | 0.00 | 0.00 | 73 | 1011.8 |
| 20260904193527 | 67 | 0 | 0.0 | 0.0 | 0.00 | 0.00 | 0.00 | 72 | 1011.9 |
| 20260904193006 | 67 | 0 | 0.0 | 0.0 | 0.00 | 0.00 | 0.00 | 71 | 1011.8 |
| 20260904192506 | 67 | 0 | 0.0 | 0.0 | 0.00 | 0.00 | 0.00 | 70 | 1011.9 |
| 20260904192006 | 68 | 0 | 0.0 | 0.0 | 0.00 | 0.00 | 0.00 | 70 | 1012.0 |
| 20260904191506 | 68 | 0 | 0.0 | 0.0 | 0.00 | 0.00 | 0.00 | 69 | 1012.0 |
| 20260904191006 | 68 | 241 | 0.0 | 0.9 | 0.00 | 0.00 | 0.00 | 69 | 1012.0 |
| 20260904190527 | 68 | 241 | 0.0 | 0.9 | 0.00 | 0.00 | 0.00 | 69 | 1011.8 |
| 20260904190006 | 68 | 241 | 0.0 | 0.9 | 0.00 | 0.00 | 0.00 | 68 | 1012.1 |
| 20260904185506 | 69 | 241 | 0.0 | 0.9 | 0.00 | 0.00 | 0.00 | 67 | 1011.8 |
| 20260904185006 | 69 | 241 | 0.0 | 0.9 | 0.00 | 0.00 | 0.00 | 67 | 1012.0 |
| 20260904184506 | 70 | 0 | 0.0 | 0.0 | 0.00 | 0.00 | 0.00 | 67 | 1011.8 |
| 20260904184006 | 70 | 0 | 0.0 | 0.0 | 0.00 | 0.00 | 0.00 | 64 | 1011.7 |